GFSGL_250_spd_132.txt.gz
Wind_Speed
57 57 59 61 59 57 56 58 55 56 53 55 57 57 52 53 55 55 61 63 66 63 66 66 69 75 76 82 80 74 74 75 77 90 85 92 85 87 84 78 74 69 65
57 58 59 56 57 55 57 58 57 54 53 56 57 59 59 60 58 58 57 60 62 65 68 73 74 82 83 87 89 88 93 92 91 95 89 75 65 62 63 64 64 61 61
57 59 58 53 57 56 57 57 59 57 55 56 59 61 64 61 59 63 69 70 71 75 76 82 89 90 92 94 93 91 90 93 89 72 68 64 62 59 61 59 59 57 55
60 59 57 57 56 55 57 59 59 58 57 56 59 61 65 68 66 65 66 68 73 78 81 83 84 83 84 88 88 90 87 81 76 68 61 60 57 57 56 55 55 51 49
60 59 57 57 58 60 59 63 65 65 63 59 60 62 65 69 68 69 72 74 75 78 79 82 82 83 88 84 82 86 81 76 67 66 60 57 55 55 56 54 50 50 52
62 60 60 62 63 65 66 68 71 69 66 62 64 64 66 69 71 70 72 73 75 78 79 81 83 83 79 78 77 79 71 69 66 58 55 55 56 54 55 51 49 48 48
62 62 61 64 67 70 72 71 72 69 68 66 63 65 69 71 70 68 71 74 75 75 76 77 80 78 79 77 77 75 69 66 63 57 59 55 55 52 52 51 45 43 43
62 63 67 70 72 74 74 75 72 70 66 65 65 69 72 73 72 73 74 75 76 77 78 80 79 77 75 72 71 69 64 58 55 55 53 52 52 51 49 47 44 42 45
64 70 73 74 75 77 78 77 73 69 67 66 69 70 72 74 74 76 77 75 75 76 76 73 73 68 66 64 62 62 60 56 53 51 50 50 47 44 41 41 40 43 47
71 72 75 78 78 78 77 75 70 68 68 68 71 74 73 72 73 74 74 75 75 74 73 73 69 65 63 61 60 59 58 53 48 48 44 37 30 28 30 34 37 42 47
76 76 78 80 79 77 74 70 68 67 67 67 66 69 73 79 80 81 81 79 78 75 72 70 69 66 64 62 58 52 48 43 42 37 30 26 26 28 32 37 38 40 45
74 75 74 76 75 70 64 61 60 62 64 68 75 80 81 85 84 81 79 76 72 69 65 62 60 56 53 49 43 41 36 36 29 26 26 26 30 36 38 41 43 46 47
71 71 71 67 63 61 62 65 68 71 75 78 81 84 85 84 82 78 73 63 55 52 49 47 45 44 44 39 34 30 29 23 24 23 25 32 40 40 42 47 47 53 57
64 61 56 58 60 63 68 69 72 77 80 82 81 79 78 75 69 61 55 47 40 38 35 34 32 29 26 23 22 19 21 20 19 25 32 39 42 41 44 45 51 55 59
49 51 55 61 63 65 70 74 78 79 79 79 76 74 70 67 58 52 44 38 34 30 27 26 23 21 17 16 19 19 17 15 26 31 37 40 41 44 45 47 51 56 59
51 55 58 61 67 72 74 76 77 78 76 72 69 65 59 49 44 36 32 30 26 21 18 16 15 15 14 17 19 19 17 24 29 31 37 39 42 45 47 49 51 57 47
54 59 64 67 70 72 74 75 75 74 65 65 57 46 41 35 31 27 24 21 18 16 13 13 13 13 13 17 19 21 22 25 31 35 38 38 44 46 47 47 52 49 37
61 64 66 70 71 73 71 65 59 57 50 46 41 35 31 28 27 24 22 20 18 17 16 15 13 13 16 19 19 22 25 28 32 37 37 40 43 45 44 46 48 40 24
64 65 69 72 69 65 59 49 46 43 40 36 32 29 28 27 25 23 21 18 14 13 13 15 16 17 20 23 25 27 30 34 37 37 37 40 43 41 40 42 41 30 14
63 65 67 65 59 53 44 43 41 37 34 30 29 27 28 26 25 21 19 16 15 16 16 18 20 24 26 28 31 32 34 36 37 37 36 36 38 35 34 38 36 18 11
65 69 64 59 55 44 43 39 36 32 28 27 27 26 27 26 25 24 23 24 24 25 24 24 27 29 30 31 33 35 35 35 34 33 32 30 32 30 30 30 26 8 14
66 62 61 59 46 44 39 34 32 29 27 26 26 26 26 27 26 26 27 27 28 30 29 30 31 33 34 34 33 32 32 30 28 28 30 28 26 24 26 24 16 4 28
59 59 55 44 43 39 33 31 30 28 27 27 27 27 27 27 27 27 28 29 31 32 33 33 33 34 34 35 35 33 31 28 27 27 27 24 21 18 21 17 4 11 24
51 51 44 42 39 33 31 29 28 27 27 28 29 29 28 28 29 29 30 31 32 32 32 32 32 33 32 33 33 32 30 28 25 23 24 22 17 15 15 10 7 20 28
50 44 39 39 35 31 29 27 26 27 27 27 28 29 30 30 30 30 30 31 32 34 35 36 37 37 37 37 37 36 34 31 29 27 25 23 17 14 11 6 17 28 29
44 38 37 35 33 29 28 28 28 27 26 25 26 27 28 30 32 33 36 37 39 40 41 42 42 43 42 43 42 41 38 35 32 31 30 27 20 17 13 13 23 30 34

GFSGL_250_spd_135.txt.gz
Wind_Speed
57 55 55 56 55 56 55 56 58 60 60 61 61 61 61 61 60 57 58 60 61 59 60 60 59 62 67 66 68 69 75 76 77 84 80 77 80 76 85 74 61 56 56
58 56 55 57 57 56 55 55 57 58 60 60 61 63 64 64 65 63 60 61 61 61 58 61 65 68 70 72 76 79 81 79 74 79 83 86 80 64 62 59 60 57 52
60 57 58 59 59 57 55 56 58 59 62 62 63 63 67 67 68 67 67 62 62 62 62 62 64 68 71 73 75 78 78 79 77 77 80 72 70 63 57 59 61 57 51
61 59 60 60 60 58 58 58 60 62 64 65 69 69 70 72 72 71 65 63 62 63 64 65 65 67 70 70 72 73 70 70 71 73 75 73 68 65 57 55 56 51 49
62 62 63 62 59 59 61 60 61 65 67 66 70 74 74 74 75 74 69 67 65 67 68 69 67 68 69 69 70 71 71 72 74 77 74 70 66 60 56 51 47 51 49
68 65 62 59 58 62 62 61 64 68 67 70 74 77 78 78 78 75 71 68 67 70 72 72 70 71 71 73 72 73 72 72 73 71 69 66 62 54 50 48 45 45 49
68 64 61 59 60 61 61 64 68 67 71 74 77 80 80 81 79 76 74 70 71 73 75 70 70 70 71 72 72 72 69 68 67 67 61 63 59 52 48 49 45 45 47
62 60 59 59 61 61 63 67 69 72 76 77 81 83 82 83 80 78 73 71 70 68 68 70 74 78 77 75 74 72 70 68 64 60 60 58 54 51 47 46 45 42 41
59 58 59 59 63 65 65 70 74 75 78 81 84 84 87 83 78 75 71 67 73 75 81 80 81 79 76 72 70 70 67 64 60 60 55 52 49 43 40 36 32 29 32
57 55 60 66 67 68 71 73 76 79 83 84 85 88 83 79 76 74 72 75 81 84 84 80 76 73 70 68 65 65 63 57 52 46 44 43 40 37 31 28 27 30 34
57 60 64 66 67 71 74 76 80 85 86 88 89 80 76 74 73 76 80 83 84 82 78 72 68 64 58 55 53 50 48 43 38 37 36 35 32 29 29 28 30 34 39
62 64 66 70 72 73 77 81 81 83 81 78 71 72 74 75 78 80 82 81 78 74 68 59 53 51 47 45 43 41 39 35 33 29 27 26 27 28 30 34 38 38 39
65 67 67 70 73 74 75 77 77 72 69 70 72 75 78 80 81 81 79 74 71 64 52 47 42 38 35 33 32 29 26 24 20 20 23 22 23 30 38 40 41 43 45
60 62 64 67 70 72 70 66 66 67 69 73 76 78 80 81 79 73 66 65 55 48 45 38 34 30 27 25 22 20 19 16 17 21 17 23 30 36 39 41 46 49 48
55 59 62 62 60 57 59 62 64 68 72 75 77 77 76 72 69 60 53 45 42 39 35 32 29 24 20 17 16 14 14 14 15 16 22 29 32 36 38 43 48 48 49
44 44 44 46 52 58 61 64 67 71 73 74 74 71 69 64 56 44 40 36 34 31 27 26 26 24 19 16 16 14 15 16 18 21 26 30 34 38 43 44 46 46 45
40 44 50 53 58 60 62 68 71 75 76 76 73 66 58 48 42 36 31 31 29 27 24 23 21 19 16 14 13 15 17 19 22 25 29 33 36 38 41 42 43 43 35
46 50 53 57 63 67 72 76 79 77 72 70 59 51 45 41 35 29 29 28 27 25 21 18 17 17 16 15 15 19 23 22 25 28 31 34 34 36 38 38 39 35 23
52 56 61 66 70 74 77 80 78 72 64 52 46 43 38 34 29 28 27 26 26 21 20 16 17 18 20 20 19 21 23 25 27 30 31 33 33 32 31 33 36 21 11
59 61 64 69 74 77 77 76 67 59 45 44 42 37 33 29 28 28 27 25 25 24 24 23 24 23 23 25 27 27 28 29 30 30 29 29 28 26 25 26 19 7 8
61 66 70 73 72 72 71 64 54 44 43 40 35 31 29 28 27 27 27 27 27 28 28 28 29 28 27 28 28 29 28 27 27 28 27 28 26 24 19 20 7 19 13
65 65 67 70 70 67 63 56 45 41 38 34 32 29 29 29 28 28 28 29 28 28 29 31 32 31 32 31 30 29 29 29 27 26 24 25 25 21 16 17 12 27 23
64 67 70 70 66 59 56 50 40 38 33 33 31 29 29 29 29 29 29 30 29 29 29 30 32 31 33 32 31 30 29 26 24 22 21 21 22 20 14 13 11 34 24
73 70 64 60 58 56 53 39 37 34 33 32 30 29 29 30 30 31 30 30 30 31 32 33 33 32 32 32 32 31 31 29 26 24 22 21 20 19 14 12 2 33 33
65 62 61 59 56 54 44 37 34 33 32 31 30 29 29 30 30 30 31 31 31 31 32 32 34 34 36 36 37 36 35 35 33 30 25 24 23 21 16 13 8 24 39
62 59 52 46 41 37 35 35 33 33 32 32 31 31 31 32 33 33 33 34 35 36 38 39 41 41 41 42 42 42 41 40 39 37 33 28 27 25 21 18 15 22 42

GFSGL_250_spd_138.txt.gz
Wind_Speed
61 59 59 60 59 60 60 60 57 55 61 62 61 56 57 57 59 61 66 67 70 71 72 72 70 65 63 61 58 58 62 66 69 72 68 72 75 75 74 71 66 63 59
61 59 62 63 62 62 60 59 60 60 61 61 58 58 59 61 63 65 68 69 72 75 73 75 73 67 66 65 63 59 60 61 63 66 70 68 67 69 69 72 69 66 60
60 62 65 64 63 63 60 58 58 58 59 63 60 59 61 64 67 69 71 73 75 77 76 77 73 70 68 65 64 64 65 65 63 61 64 63 65 65 67 69 68 67 60
63 64 62 60 60 60 58 59 60 58 61 65 62 61 64 66 70 72 73 75 79 80 82 81 76 73 69 68 66 66 65 63 62 62 63 65 65 64 63 64 68 61 58
64 60 59 59 60 59 58 58 60 60 64 66 63 65 65 70 73 75 76 80 83 83 85 85 77 74 68 65 63 62 63 64 66 65 64 63 62 62 61 63 64 62 60
65 65 66 65 63 59 58 60 64 66 66 65 65 67 69 73 76 78 80 83 85 87 90 86 77 68 63 64 68 68 67 68 67 67 66 62 62 59 61 60 59 59 55
72 68 68 67 64 65 64 65 67 66 68 66 67 70 74 78 79 79 83 85 88 91 92 83 72 70 70 73 72 73 73 71 69 67 64 61 60 59 58 57 54 51 49
70 70 69 67 64 63 64 65 66 66 67 69 73 74 78 79 81 83 85 88 89 93 85 76 74 75 76 77 78 76 73 71 67 63 60 59 57 57 53 49 46 46 44
66 66 65 64 63 62 61 62 62 66 70 74 76 78 79 81 83 85 89 90 88 83 77 77 79 82 81 75 69 65 61 56 53 51 49 47 46 41 40 38 37 35 36
62 63 60 60 60 58 59 63 66 69 74 77 78 79 80 83 86 88 90 87 82 79 80 82 83 79 72 65 58 55 49 45 44 42 41 37 33 32 31 31 28 30 31
57 56 60 59 58 61 64 65 69 71 77 78 77 80 81 85 89 90 85 80 80 81 83 79 73 67 59 50 45 41 38 35 32 31 28 26 27 27 24 22 26 31 36
56 57 57 59 61 63 66 68 71 74 76 78 80 81 84 86 84 81 78 79 80 79 74 69 61 51 45 40 37 34 31 28 26 23 21 20 19 18 20 25 30 34 39
54 55 56 59 60 63 68 69 72 74 76 78 79 81 81 79 76 77 78 79 74 69 62 53 45 40 36 33 34 31 26 22 19 17 15 13 16 20 26 31 33 39 41
52 53 54 58 64 68 69 69 70 73 75 75 75 73 73 73 74 77 78 69 62 53 45 40 35 33 29 28 27 25 22 17 12 12 14 16 19 26 30 37 41 42 40
49 52 56 57 59 62 64 65 68 70 67 66 67 69 71 75 79 73 68 58 47 44 38 33 32 28 26 24 23 21 18 15 15 16 17 20 24 29 36 39 41 41 43
41 48 52 54 57 58 59 57 57 59 61 66 70 73 76 78 72 64 54 48 42 36 31 30 28 26 24 21 21 19 16 18 18 20 22 26 30 34 35 38 39 40 39
45 48 49 50 47 47 50 54 61 65 68 73 73 76 78 69 63 53 46 41 35 30 29 28 26 23 21 20 19 18 18 20 21 24 25 28 30 33 34 36 36 37 30
40 38 35 38 45 50 55 59 67 72 76 79 82 78 69 61 48 44 40 35 30 28 28 26 25 22 21 20 20 20 20 21 23 23 25 27 29 30 31 32 34 29 24
31 35 40 46 52 56 62 66 70 74 80 84 78 74 61 49 45 40 33 30 28 27 27 24 24 24 23 23 23 24 23 23 22 22 22 24 26 26 28 27 27 19 15
43 47 51 54 59 65 68 71 74 80 81 76 74 65 49 44 38 33 30 28 27 26 26 25 27 27 27 26 26 25 24 24 25 24 22 23 25 22 21 24 15 10 6
51 54 57 61 64 67 72 76 76 77 77 74 62 54 45 40 33 31 29 28 27 27 26 24 28 29 29 29 27 26 25 25 25 24 22 19 19 16 16 16 9 5 7
56 60 63 66 69 72 73 74 76 74 68 62 53 45 40 35 32 30 29 29 30 29 29 27 28 29 28 28 27 26 26 25 24 22 20 17 16 16 11 12 15 11 9
60 64 67 68 65 68 74 76 71 66 61 54 45 40 37 33 31 30 30 30 32 32 30 29 30 30 29 29 29 29 26 24 22 19 18 17 16 16 12 8 6 24 15
58 60 64 67 70 74 77 78 65 57 50 40 34 35 35 31 31 30 31 31 32 33 34 32 32 32 33 31 29 28 28 27 24 23 21 19 17 15 15 10 7 15 27
64 69 72 78 78 79 72 58 50 43 36 33 34 33 33 30 31 31 32 32 32 33 33 33 33 33 33 32 32 32 32 31 31 29 27 24 21 18 17 16 12 8 25
74 78 81 79 69 55 49 47 43 40 34 35 34 32 32 32 33 34 35 34 35 36 36 37 38 39 40 40 41 40 40 39 37 36 35 31 28 25 21 22 19 15 20

GFSGL_250_spd_141.txt.gz
Wind_Speed
76 72 70 69 70 67 68 70 69 69 67 68 67 66 66 66 66 68 66 70 70 74 74 76 76 76 78 79 77 74 76 70 62 60 63 63 63 65 69 68 67 69 70
74 72 71 70 67 68 63 64 68 70 68 69 68 67 65 64 63 67 69 72 72 73 77 77 77 79 81 83 81 80 82 71 61 59 62 62 62 66 66 66 65 66 67
68 67 66 62 60 60 64 68 69 69 67 68 68 66 64 63 66 69 73 75 75 79 80 80 81 83 86 85 84 87 77 67 61 57 57 60 65 66 69 71 72 72 72
62 63 64 64 58 61 65 65 65 67 67 67 64 64 61 63 68 72 74 76 78 81 81 82 84 87 86 88 90 83 74 68 65 63 64 68 72 75 71 70 72 72 71
69 68 70 70 69 70 65 63 63 65 64 62 63 62 63 65 70 73 76 79 80 83 83 84 87 87 88 89 92 85 80 76 74 73 73 72 73 72 70 71 68 70 72
68 64 62 66 64 64 66 67 67 66 67 66 63 66 65 69 72 75 79 80 82 85 85 86 88 88 91 95 86 82 80 77 76 76 73 69 71 68 69 68 65 63 62
69 63 62 66 65 68 69 70 68 67 68 67 68 64 68 71 73 78 79 82 84 86 88 88 88 92 96 90 85 80 79 74 70 68 67 63 63 61 59 57 52 49 47
69 63 68 69 69 72 73 73 72 70 68 66 66 68 71 73 75 79 81 84 85 86 87 87 92 95 88 88 83 79 73 66 56 53 50 50 48 47 43 37 36 37 32
68 69 66 67 68 69 68 69 68 67 65 65 68 70 71 75 79 82 84 85 86 87 87 89 91 85 85 84 78 72 62 55 47 42 38 36 35 33 33 31 27 28 30
64 63 65 64 65 63 63 65 65 66 66 68 71 72 77 79 82 83 84 84 85 87 90 90 84 85 82 75 67 56 49 43 38 34 31 28 25 23 22 22 24 26 26
62 61 56 57 58 59 60 63 66 68 67 70 73 76 79 81 80 81 83 83 86 88 88 82 80 77 69 58 50 46 38 32 31 26 22 19 18 17 18 18 18 22 31
51 50 54 55 56 59 64 68 66 67 68 72 74 78 78 77 80 81 82 83 86 82 82 79 73 64 51 45 40 38 32 29 27 24 20 16 13 13 15 19 24 28 33
56 55 53 53 55 59 61 65 65 66 67 71 73 74 76 79 79 81 83 83 79 79 79 72 61 49 43 36 34 32 27 25 22 18 16 15 19 22 23 26 30 30 34
52 50 48 50 53 56 59 61 64 65 68 69 71 73 75 78 78 79 80 76 76 76 68 59 47 42 35 31 31 27 23 20 20 20 17 19 22 28 30 33 34 34 33
45 46 48 50 53 54 55 59 61 63 65 66 70 71 72 70 74 77 73 74 74 65 52 44 40 35 30 29 28 24 21 19 20 20 19 21 24 28 30 34 33 34 35
41 44 43 45 47 52 54 54 56 58 64 64 62 65 68 74 73 75 76 71 63 50 44 40 35 30 28 28 25 20 20 19 18 19 21 23 25 28 32 33 34 36 30
37 38 39 40 42 48 52 54 62 57 57 61 63 67 71 73 78 81 74 65 52 44 42 35 31 27 26 25 23 21 20 19 19 19 20 21 21 26 32 32 33 33 27
33 35 38 43 49 52 55 51 49 53 57 62 67 72 77 80 83 77 70 56 45 40 35 32 29 26 25 24 22 22 21 20 19 18 16 21 22 25 26 29 31 27 28
43 44 48 51 48 43 46 50 56 62 66 69 73 77 83 82 79 74 63 50 42 34 31 30 28 27 26 25 25 24 23 22 20 17 17 20 21 18 19 23 27 21 21
33 31 33 40 43 49 55 60 66 69 71 74 79 81 83 79 72 61 52 44 38 32 30 30 28 28 27 26 26 25 24 22 21 19 18 18 17 13 14 21 21 13 6
34 40 46 49 52 56 60 66 71 75 76 76 78 78 78 73 61 54 45 39 35 32 30 30 29 28 27 27 26 25 24 22 21 19 17 14 13 10 11 15 18 10 3
45 50 54 57 59 62 67 70 72 73 72 74 76 73 70 58 51 41 36 36 33 31 30 30 30 29 28 28 26 25 23 22 21 20 18 13 10 11 8 9 14 8 7
54 57 61 64 68 68 67 68 72 74 75 74 71 62 50 45 38 35 35 34 33 31 29 29 31 30 30 30 29 28 25 24 24 20 17 14 12 12 11 8 8 8 12
61 64 65 66 68 70 72 73 76 75 73 68 54 45 41 37 35 35 34 34 33 30 30 30 31 32 32 33 32 32 31 28 23 20 19 18 16 15 14 13 10 6 17
63 64 63 66 70 73 74 76 70 64 53 45 43 39 36 34 35 35 34 34 33 32 32 32 32 33 32 32 32 32 31 30 29 27 24 22 20 18 17 17 15 12 9
68 70 73 76 72 69 59 51 45 42 40 40 37 35 34 34 35 34 35 35 35 35 36 35 35 36 37 38 38 38 38 37 37 36 33 30 28 25 23 21 21 18 15

GFSGL_250_spd_147.txt.gz
Wind_Speed
75 70 71 69 64 53 52 50 49 48 48 54 62 68 59 71 67 72 80 88 96 92 83 81 85 89 90 87 93 94 95 98 98 99 101 102 101 100 98 94 85 81 78
74 69 70 64 58 58 55 55 54 54 58 61 62 60 69 76 74 89 90 93 92 88 84 87 92 88 90 95 97 97 99 104 101 100 104 104 103 101 92 86 80 73 66
72 69 68 63 63 59 56 59 59 62 63 65 66 70 74 77 83 84 88 90 93 89 87 91 89 89 95 98 98 101 105 104 103 102 104 103 102 91 83 74 62 56 52
71 71 67 64 62 61 60 61 64 63 64 68 71 73 74 78 84 88 90 91 88 88 90 92 90 93 97 99 101 103 104 104 104 105 102 101 91 81 70 65 61 49 48
72 69 67 68 66 65 66 66 68 69 72 72 70 73 78 80 83 84 86 86 86 90 90 90 93 97 98 100 100 102 105 105 104 101 100 88 78 71 65 61 55 48 44
73 70 70 69 66 66 62 63 67 67 67 68 70 73 73 78 81 81 83 86 86 86 89 92 95 99 99 99 102 102 103 102 101 99 86 76 67 60 56 49 46 44 39
75 73 70 70 63 65 68 68 66 66 69 70 71 74 77 78 79 84 83 84 86 88 91 93 96 98 101 103 104 104 102 99 95 83 76 63 55 51 46 42 35 31 32
75 68 62 61 65 64 65 67 67 67 67 70 74 76 76 79 82 82 85 86 87 91 92 95 97 99 101 105 102 101 97 91 83 75 60 51 46 42 37 34 34 30 26
70 62 60 65 65 63 64 67 69 69 72 72 76 75 76 79 80 84 87 88 91 91 93 97 97 99 102 101 98 92 88 81 73 58 49 43 36 33 35 39 41 43 41
66 58 60 60 63 65 67 68 67 71 72 75 75 76 77 81 84 87 89 89 90 91 92 94 96 97 97 95 89 83 79 73 60 46 40 35 31 29 30 34 39 41 42
58 56 56 57 59 61 62 65 67 68 71 72 74 77 80 84 86 88 87 85 85 87 90 90 91 91 90 86 79 75 71 59 50 41 36 33 30 28 29 31 34 39 40
55 56 56 55 57 56 59 63 66 69 72 74 77 78 81 84 84 87 84 84 85 87 88 88 84 84 84 80 77 71 62 51 45 37 33 30 28 28 28 31 32 36 34
52 55 56 57 57 58 59 59 62 65 70 75 80 83 84 85 84 83 81 84 85 87 83 81 82 80 80 79 78 69 55 46 39 32 29 26 26 27 28 32 30 30 28
51 54 57 60 61 60 62 66 68 69 73 78 79 80 78 79 77 78 82 85 82 75 77 78 75 78 80 80 77 65 49 40 34 29 26 25 22 23 26 31 31 32 23
47 49 50 51 54 51 49 50 54 61 68 72 73 73 73 74 76 79 79 74 74 75 73 74 77 81 83 78 71 55 43 35 30 28 25 22 19 20 23 25 25 27 24
44 49 46 40 41 41 46 50 56 63 65 67 68 69 72 72 74 70 68 71 72 73 75 78 82 84 83 74 59 44 37 31 29 27 24 21 21 20 21 21 20 27 20
31 33 35 35 38 44 51 53 55 61 62 65 67 67 67 63 61 67 66 67 69 75 78 81 84 84 80 67 49 39 32 29 28 27 24 20 18 17 17 21 19 21 19
34 38 45 51 54 55 53 55 56 52 53 52 53 56 59 60 60 62 67 72 74 78 81 85 86 80 67 52 41 33 30 27 26 25 23 20 19 17 16 16 17 18 13
34 39 48 50 51 53 55 47 46 46 49 53 55 56 57 62 65 68 71 76 80 84 85 84 82 70 51 41 33 31 28 26 25 24 23 22 19 15 13 12 12 15 10
47 47 50 53 57 52 46 46 45 48 49 52 56 60 64 68 72 76 79 81 82 84 85 85 72 50 42 35 32 30 28 25 24 23 21 19 18 15 12 10 8 9 4
44 51 51 45 42 41 45 47 50 53 58 60 64 67 71 75 78 81 83 82 84 80 80 67 49 43 36 34 31 30 29 26 24 22 20 18 17 16 13 9 6 6 2
42 40 37 39 44 48 49 53 59 62 64 67 71 74 77 80 82 85 83 81 78 75 60 51 48 40 35 33 30 30 29 27 25 23 21 19 18 17 15 11 8 3 5
37 41 43 45 50 54 59 64 67 70 72 76 78 81 83 83 82 81 74 66 59 50 49 47 44 39 36 31 29 29 28 28 27 25 23 21 20 19 18 14 12 9 9
42 46 50 53 57 62 66 71 75 79 82 83 81 81 82 78 69 62 55 50 52 48 46 43 39 36 33 30 29 29 29 28 27 27 26 25 23 22 21 19 17 14 10
51 55 59 64 70 74 77 77 78 80 81 82 79 71 66 65 61 55 50 47 43 43 41 38 35 32 30 29 29 29 29 29 29 29 27 26 26 26 24 24 21 19 16
61 64 68 73 74 75 76 76 76 72 68 66 63 59 53 49 46 44 40 39 38 36 35 33 30 29 28 28 28 28 28 29 30 31 31 29 29 29 29 29 27 24 22